GW1554 Weather Reports


Display with metric or nautical units.
time (UTC)temp
F
wind
direction
speed
MPH
gust
MPH
rain 1hr
in
rain 24hr
in
rain mn
in
humidity
%
barometer
mb
20260509050037 60 309 5.0 10.0 0.00 0.00 0.00 70 1017.0
20260509044535 59 13 4.0 10.0 0.00 0.00 0.00 71 1017.1
20260509043033 59 16 5.0 10.0 0.00 0.00 0.00 71 1017.1
20260509041533 58 337 4.0 8.0 0.00 0.00 0.00 72 1017.0
20260509040031 58 340 4.0 9.0 0.00 0.00 0.00 71 1017.2
20260509034533 59 40 4.0 9.0 0.00 0.00 0.00 70 1017.2
20260509033031 59 15 3.0 9.0 0.00 0.00 0.00 70 1017.1
20260509031529 59 350 5.0 11.0 0.00 0.00 0.00 70 1017.2
20260509030028 59 333 4.0 9.0 0.00 0.00 0.00 70 1017.2
20260509024526 59 8 2.0 6.0 0.00 0.00 0.00 70 1017.2
20260509023024 59 352 4.0 8.0 0.00 0.00 0.00 70 1017.4
20260509021521 59 37 3.0 7.0 0.00 0.00 0.00 70 1017.3
20260509020033 58 23 3.0 7.0 0.00 0.00 0.00 70 1017.3
20260509014534 58 355 1.0 5.0 0.00 0.00 0.00 71 1017.3
20260509013015 58 319 0.0 2.0 0.00 0.00 0.00 71 1017.3
20260509011514 58 7 0.0 3.0 0.00 0.00 0.00 71 1017.4
20260509010012 57 341 0.0 5.0 0.00 0.00 0.00 74 1017.4
20260509004516 57 41 3.0 7.0 0.00 0.00 0.00 74 1017.3
20260509003020 57 340 3.0 6.0 0.00 0.00 0.00 74 1017.5
20260509001508 57 335 2.0 5.0 0.00 0.00 0.00 74 1017.5
20260509000007 57 340 2.0 8.0 0.00 0.00 0.00 74 1017.5
20260508234506 57 310 3.0 10.0 0.00 0.00 0.00 74 1017.5
20260508233005 57 19 4.0 8.0 0.00 0.00 0.00 74 1017.5
20260508231502 57 344 3.0 8.0 0.00 0.00 0.00 74 1017.7
20260508230101 58 321 2.0 5.0 0.00 0.00 0.00 73 1017.9
20260508224602 58 317 2.0 7.0 0.00 0.00 0.00 73 1017.8
20260508223057 58 15 2.0 7.0 0.00 0.00 0.00 73 1017.9
20260508221558 58 356 2.0 5.0 0.00 0.00 0.00 73 1017.6
20260508220052 58 22 2.0 5.0 0.00 0.00 0.00 73 1017.6
20260508214554 58 328 3.0 7.0 0.00 0.00 0.00 73 1017.4
20260508213051 59 306 2.0 5.0 0.00 0.00 0.00 73 1017.4
20260508211549 59 349 0.0 4.0 0.00 0.00 0.00 72 1017.3
20260508210050 59 24 2.0 6.0 0.00 0.00 0.00 73 1017.3
20260508204551 59 350 3.0 8.0 0.00 0.00 0.00 73 1017.3
20260508203055 59 319 3.0 6.0 0.00 0.00 0.00 73 1017.3
20260508201557 59 312 2.0 4.0 0.00 0.00 0.00 72 1017.3
20260508200046 59 356 2.0 6.0 0.00 0.00 0.00 72 1017.1
20260508194545 60 297 2.0 6.0 0.00 0.00 0.00 73 1017.1
20260508193043 60 338 2.0 5.0 0.00 0.00 0.00 73 1016.8
20260508191541 60 30 2.0 4.0 0.00 0.00 0.00 72 1016.6
20260508190039 61 13 2.0 5.0 0.00 0.00 0.00 72 1016.2
20260508184539 61 359 1.0 4.0 0.00 0.00 0.00 72 1016.2
20260508183040 62 283 0.0 0.0 0.00 0.00 0.00 71 1016.1
20260508181552 64 269 0.0 3.0 0.00 0.00 0.00 68 1016.0
20260508180035 65 238 0.0 2.0 0.00 0.00 0.00 65 1015.9
20260508174547 66 229 0.0 5.0 0.00 0.00 0.00 64 1015.9
20260508173041 67 218 1.0 3.0 0.00 0.00 0.00 60 1015.8
20260508171536 68 208 1.0 5.0 0.00 0.00 0.00 58 1016.0
20260508170033 68 197 0.0 3.0 0.00 0.00 0.00 59 1015.9
20260508164532 67 254 1.0 6.0 0.00 0.00 0.00 59 1015.9
20260508163034 66 212 2.0 6.0 0.00 0.00 0.00 60 1016.0
20260508161530 67 150 4.0 8.0 0.00 0.00 0.00 58 1015.8
20260508160029 69 149 2.0 5.0 0.00 0.00 0.00 55 1015.8
20260508154529 70 226 2.0 5.0 0.00 0.00 0.00 55 1015.8
20260508153028 68 65 4.0 8.0 0.00 0.00 0.00 56 1015.7
20260508151531 69 121 4.0 8.0 0.00 0.00 0.00 55 1015.7
20260508150033 69 129 3.0 7.0 0.00 0.00 0.00 56 1015.6
20260508144527 69 143 4.0 7.0 0.00 0.00 0.00 55 1015.8
20260508143029 69 244 3.0 11.0 0.00 0.00 0.00 55 1015.8
20260508141540 69 78 3.0 12.0 0.00 0.00 0.00 55 1015.7
20260508140024 69 76 3.0 8.0 0.00 0.00 0.00 56 1015.7
20260508134528 68 59 2.0 7.0 0.00 0.00 0.00 57 1015.8
20260508133022 69 217 3.0 8.0 0.00 0.00 0.00 55 1015.9
20260508131522 69 158 6.0 13.0 0.00 0.00 0.00 56 1015.9
20260508130021 69 284 4.0 9.0 0.00 0.00 0.00 56 1015.8
20260508124524 71 197 3.0 8.0 0.00 0.00 0.00 53 1015.6
20260508123028 69 248 3.0 12.0 0.00 0.00 0.00 54 1015.7
20260508121521 69 210 3.0 8.0 0.00 0.00 0.00 54 1015.7
20260508120019 70 231 3.0 11.0 0.00 0.00 0.00 55 1015.7
20260508114519 70 194 4.0 8.0 0.00 0.00 0.00 54 1015.7
20260508113017 70 198 4.0 10.0 0.00 0.00 0.00 55 1015.7
20260508111517 70 191 3.0 7.0 0.00 0.00 0.00 56 1015.6
20260508110017 70 235 2.0 7.0 0.00 0.00 0.00 56 1015.7
20260508104521 70 210 5.0 10.0 0.00 0.00 0.00 56 1015.8
20260508103016 70 211 2.0 7.0 0.00 0.00 0.00 59 1015.7
20260508101516 69 212 2.0 11.0 0.00 0.00 0.00 61 1015.7
20260508100010 69 97 4.0 10.0 0.00 0.00 0.00 60 1015.7
20260508094510 69 133 2.0 6.0 0.00 0.00 0.00 61 1015.8
20260508093013 69 84 2.0 8.0 0.00 0.00 0.00 61 1015.8
20260508091504 68 144 2.0 5.0 0.00 0.00 0.00 62 1015.7
20260508090008 68 286 1.0 5.0 0.00 0.00 0.00 61 1015.6
20260508084559 67 138 0.0 4.0 0.00 0.00 0.00 70 1015.5
20260508083109 65 98 0.0 2.0 0.00 0.00 0.00 69 1015.5
20260508081602 64 218 0.0 0.0 0.00 0.00 0.00 72 1015.3
20260508080050 64 125 0.0 0.0 0.00 0.00 0.00 73 1015.3
20260508074551 62 207 0.0 0.0 0.00 0.00 0.00 73 1015.2
20260508073047 63 200 0.0 0.0 0.00 0.00 0.00 73 1015.0
20260508071545 62 27 0.0 0.0 0.00 0.00 0.00 74 1014.9
20260508070042 60 6 0.0 0.0 0.00 0.00 0.00 75 1014.8
20260508064541 61 18 0.0 0.0 0.00 0.00 0.00 74 1014.8
20260508063038 59 18 0.0 0.0 0.00 0.00 0.00 77 1014.8
20260508061533 57 18 0.0 0.0 0.00 0.00 0.00 80 1014.8
20260508060030 57 18 0.0 0.0 0.00 0.00 0.00 79 1014.6
20260508054528 56 2 0.0 0.0 0.00 0.00 0.00 80 1014.5
20260508053125 55 18 0.0 0.0 0.00 0.00 0.00 80 1014.6
20260508051526 54 23 0.0 3.0 0.00 0.00 0.00 81 1014.5